EW4052 Weather Reports


Display with metric or nautical units.
time (UTC)temp
F
wind
direction
speed
MPH
gust
MPH
rain 1hr
in
rain 24hr
in
rain mn
in
humidity
%
barometer
mb
20260903144538 68 200 1.0 7.0 0.02 0.10 0.10 100 1011.2
20260903143033 69 88 0.0 0.0 0.00 0.08 0.08 100 1010.7
20260903141535 69 88 0.0 0.0 0.00 0.08 0.08 100 1010.3
20260903140036 69 91 0.0 4.0 0.00 0.08 0.08 100 1009.8
20260903134520 69 309 0.0 0.0 0.00 0.08 0.08 100 1009.7
20260903133020 68 133 0.0 0.0 0.00 0.08 0.08 100 1009.8
20260903131515 0 312 0.0 0.0 0.00 0.08 0.08 1010.0
20260903130007 0 315 0.0 0.0 0.00 0.08 0.08 1009.9
20260903124503 0 316 0.0 0.0 0.00 0.08 0.08 1009.8
20260903123058 0 339 0.0 0.0 0.00 0.08 0.08 1010.1
20260903121557 0 12 0.0 11.0 0.00 0.08 0.08 1010.4
20260903120105 0 35 0.0 0.0 0.00 0.08 0.08 1010.3
20260903114554 0 49 0.0 0.0 0.00 0.08 0.08 1010.1
20260903113057 0 49 0.0 0.0 0.00 0.08 0.08 1009.8
20260903111553 0 22 1.0 11.0 0.00 0.08 0.08 1009.8
20260903110101 0 38 6.0 14.0 0.00 0.08 0.08 1010.6
20260903104554 0 328 6.0 8.0 0.00 0.09 0.08 1011.2
20260903103047 71 348 0.0 6.0 0.00 0.09 0.08 100 1010.7
20260903101543 71 267 0.0 0.0 0.02 0.09 0.08 100 1010.1
20260903100038 73 267 0.0 0.0 0.02 0.09 0.08 19 1010.0
20260903094537 74 250 4.0 17.0 0.02 0.12 0.08 42 1010.2
20260903093029 72 243 7.0 17.0 0.02 0.12 0.08 2 1010.4
20260903091523 70 186 0.0 0.0 0.06 0.10 0.06 100 1009.7
20260903090019 70 186 0.0 0.0 0.06 0.10 0.06 100 1009.1
20260903084532 71 186 0.0 0.0 0.06 0.14 0.06 100 1009.0
20260903083010 73 184 0.0 6.0 0.06 0.14 0.06 41 1008.8
20260903081506 76 207 0.0 9.0 0.00 0.08 0.00 69 1009.6
20260903080001 75 221 0.0 8.0 0.00 0.08 0.00 69 1009.0
20260903074602 75 140 0.0 8.0 0.00 0.08 0.00 38 1009.6
20260903073052 75 219 1.0 8.0 0.00 0.08 0.00 39 1009.5
20260903071548 71 226 0.0 4.0 0.00 0.08 0.00 100 1009.2
20260903070043 71 96 0.0 0.0 0.00 0.08 0.00 100 1008.6
20260903064538 71 96 0.0 0.0 0.00 0.08 0.00 100 1008.5
20260903063034 71 96 0.0 0.0 0.00 0.08 0.00 100 1008.6
20260903061536 71 96 0.0 0.0 0.00 0.08 0.00 100 1008.6
20260903060037 71 96 0.0 0.0 0.00 0.08 0.00 100 1008.8
20260903054522 71 96 0.0 0.0 0.00 0.08 0.00 100 1008.6
20260903053028 71 96 0.0 0.0 0.00 0.08 0.00 100 1008.5
20260903051513 71 96 0.0 0.0 0.00 0.08 0.00 100 1008.6
20260903050010 72 96 0.0 0.0 0.00 0.08 0.00 100 1008.7
20260903044511 72 96 0.0 0.0 0.00 0.08 0.08 100 1008.6
20260903043015 73 96 0.0 0.0 0.00 0.08 0.08 100 1008.5
20260903041506 73 96 0.0 0.0 0.00 0.08 0.08 100 1008.6
20260903040008 74 96 0.0 0.0 0.00 0.08 0.08 100 1008.7
20260903034506 74 96 0.0 0.0 0.00 0.08 0.08 100 1008.7
20260903033005 74 96 0.0 0.0 0.00 0.08 0.08 100 1008.9
20260903031504 74 96 0.0 0.0 0.00 0.08 0.08 100 1008.8
20260903030003 75 96 0.0 0.0 0.00 0.08 0.08 100 1008.8
20260903024504 75 96 0.0 0.0 0.00 0.08 0.08 100 1008.8
20260903023002 75 96 0.0 0.0 0.00 0.08 0.08 100 1008.8
20260903021506 75 96 0.0 0.0 0.00 0.08 0.08 100 1008.6
20260903020105 76 96 0.0 0.0 0.00 0.08 0.08 100 1008.5
20260903014602 76 96 0.0 0.0 0.00 0.08 0.08 3 1008.5
20260903013050 76 96 0.0 0.0 0.00 0.08 0.08 4 1008.2
20260903011546 77 96 0.0 0.0 0.00 0.08 0.08 16 1008.1
20260903010040 77 96 0.0 0.0 0.00 0.08 0.08 30 1008.1
20260903004537 78 96 0.0 0.0 0.00 0.08 0.08 45 1008.2
20260903003032 79 96 0.0 0.0 0.00 0.08 0.08 49 1008.2
20260903001528 80 96 0.0 0.0 0.00 0.08 0.08 53 1008.2
20260903000025 81 96 0.0 0.0 0.00 0.08 0.08 59 1008.1
20260902234518 82 96 0.0 0.0 0.00 0.08 0.08 65 1008.0
20260902233014 82 101 0.0 0.0 0.00 0.08 0.08 67 1008.1
20260902231512 83 105 0.0 4.0 0.00 0.08 0.08 69 1008.1
20260902230005 83 300 0.0 0.0 0.00 0.08 0.08 68 1008.2
20260902224607 82 300 0.0 0.0 0.00 0.08 0.08 67 1008.2
20260902223056 83 300 0.0 0.0 0.00 0.08 0.08 69 1008.1
20260902221552 83 301 0.0 5.0 0.00 0.08 0.08 69 1008.1
20260902220048 84 22 0.0 3.0 0.00 0.08 0.08 68 1008.2
20260902214543 84 143 0.0 4.0 0.00 0.08 0.08 68 1008.3
20260902213037 85 254 0.0 4.0 0.00 0.08 0.08 67 1008.4
20260902211532 85 302 0.0 4.0 0.00 0.08 0.08 66 1008.5
20260902210047 85 263 0.0 1.0 0.00 0.08 0.08 66 1008.7
20260902204528 85 233 0.0 4.0 0.00 0.08 0.08 65 1008.8
20260902203019 86 305 0.0 3.0 0.00 0.08 0.08 66 1009.0
20260902201514 86 271 0.0 0.0 0.00 0.08 0.08 64 1009.1
20260902200011 85 311 0.0 3.0 0.00 0.08 0.08 65 1009.3
20260902194506 85 349 0.0 0.0 0.00 0.08 0.08 67 1009.5
20260902193001 84 186 0.0 3.0 0.00 0.08 0.08 68 1009.6
20260902191604 83 284 0.0 1.0 0.00 0.08 0.08 68 1009.6
20260902190059 82 288 0.0 0.0 0.00 0.08 0.08 68 1009.6
20260902184555 82 294 0.0 0.0 0.00 0.09 0.08 67 1009.8
20260902183051 83 294 0.0 2.0 0.00 0.09 0.08 66 1009.9
20260902181555 83 295 0.0 0.0 0.00 0.09 0.08 68 1010.3
20260902180100 82 293 0.0 3.0 0.00 0.09 0.08 69 1010.4
20260902174537 80 285 0.0 4.0 0.00 0.22 0.08 69 1010.0
20260902173034 78 319 0.0 0.0 0.00 0.22 0.08 66 1010.2
20260902171529 75 355 0.0 1.0 0.00 0.22 0.08 40 1010.6
20260902170029 71 355 3.0 6.0 0.00 0.22 0.08 100 1010.6
20260902164529 69 299 0.0 0.0 0.00 0.22 0.08 100 1011.1
20260902163027 68 216 0.0 0.0 0.00 0.22 0.08 100 1010.5
20260902161520 68 215 0.0 0.0 0.00 0.22 0.08 100 1011.8
20260902160014 68 215 0.0 0.0 0.00 0.22 0.08 100 1011.7
20260902154511 67 227 0.0 0.0 0.00 0.22 0.08 100 1011.6
20260902153007 67 227 0.0 0.0 0.00 0.22 0.08 100 1011.5
20260902151505 68 227 0.0 0.0 0.00 0.22 0.08 100 1011.4
20260902150057 67 227 0.0 0.0 0.00 0.22 0.08 100 1010.8